Hourly Data Report for October 25, 2013

All times are specified in Local Standard Time (LST). Add 1 hour to adjust for Daylight Saving Time where and when it is observed.

FREDERICTON
NEW BRUNSWICK

45°52'08.000" N
66°32'14.000" W
20.70 m
8101505
71700
YFC

Download Data

Hourly Data (October 2013)
Hourly Data Report for October 25, 2013
Temp Definition
°C
Dew Point Temp Definition
°C
Rel Hum Definition
%
Wind Dir Definition
10's deg

Wind Spd Definition
km/h
Visibility Definition
km
Stn Press Definition
kPa
Hmdx Definition


Wind Chill Definition


Weather Definition


TIME
00:00 Legend Double Dagger 5.4 -1.9 59 24 17 16.1 100.17     LegendNANA
01:00 Legend Double Dagger 5.1 -1.1 64 24 13 16.1 100.24     LegendNANA
02:00 Legend Double Dagger 3.2 -1.0 74 23 8 16.1 100.29     LegendNANA
03:00 Legend Double Dagger 0.4 -1.5 87 22 13 16.1 100.32     LegendNANA
04:00 Legend Double Dagger 2.4 -0.7 80 21 15 16.1 100.37     LegendNANA
05:00 Legend Double Dagger 1.0 -0.9 87 22 9 16.1 100.47     LegendNANA
06:00 Legend Double Dagger 0.5 -1.1 89 22 11 16.1 100.54     LegendNANA
07:00 Legend Double Dagger -1.4 -2.1 95 20 9 16.1 100.61   -5 LegendNANA
08:00 Legend Double Dagger 2.3 -0.2 83 19 11 16.1 100.71     LegendNANA
09:00 Legend Double Dagger 5.2 0.4 71 26 11 16.1 100.75     LegendNANA
10:00 Legend Double Dagger 7.2 -0.3 59 28 13 16.1 100.77     LegendNANA
11:00 Legend Double Dagger 8.4 -0.3 54 29 21 16.1 100.79     LegendNANA
12:00 Legend Double Dagger 8.7 -0.4 53 29 18 16.1 100.78     LegendNANA
13:00 Legend Double Dagger 9.8 -1.0 47 26 22 16.1 100.74     LegendNANA
14:00 Legend Double Dagger 10.0 -2.5 42 26 15 16.1 100.76     LegendNANA
15:00 Legend Double Dagger 8.4 -1.4 50 30 13 16.1 100.80     LegendNANA
16:00 Legend Double Dagger 9.5 -2.8 42 30 21 16.1 100.81     LegendNANA
17:00 Legend Double Dagger 8.4 -2.0 48 30 11 16.1 100.87     LegendNANA
18:00 Legend Double Dagger 7.2 -2.3 51 28 11 16.1 100.95     LegendNANA
19:00 Legend Double Dagger 6.2 -1.7 57 25 5 16.1 101.02     LegendNANA
20:00 Legend Double Dagger 5.4 -1.3 62 26 8 16.1 101.06     LegendNANA
21:00 Legend Double Dagger 5.6 -1.0 63 25 9 16.1 101.11     LegendNANA
22:00 Legend Double Dagger 5.9 -1.4 59 28 13 16.1 101.16     LegendNANA
23:00 Legend Double Dagger 5.6 -2.0 58 26 11 16.1 101.17     LegendNANA

Notes on Data Quality.

Legend

  • E = Estimated
  • M = Missing
  • NA = Not Available
  • ‡ = Partner data that is not subject to review by the National Climate Archives
Date modified: